Location: Saint Louis
(38.6272°N, 90.1978°W)
Time: 11:07:09
(UTC-05:00)

ISS - Pass Details

Date: 24 January 2013
Orbit: 402 x 404 km, 51.6° (Epoch: 27 May)

Event Time Altitude Azimuth Distance (km) Brightness Sun altitude
Exits shadow 05:16:35 - 15° (NNE) 1,567 -0.3 -22.6°
Enters shadow 06:13:26 -73° 270° (W) 12,617 4.1 -11.7°
Maximum altitude 06:53:46 21° 25° (NNE) 1,025 -1.2 -4.2°
